GW3202 Weather Reports


time (UTC)temp
F
wind
direction
speed
knots
gust
knots
rain 1hr
in
rain 24hr
in
rain mn
in
humidity
%
barometer
mb
20260905114004 64 74 1.7 2.6 0.00 0.00 0.00 94 1020.0
20260905113004 64 92 0.9 2.6 0.00 0.00 0.00 94 1019.9
20260905112004 64 70 0.9 2.6 0.00 0.00 0.00 94 1019.9
20260905111006 64 53 1.7 2.6 0.00 0.00 0.00 95 1020.0
20260905110004 64 47 0.9 2.6 0.00 0.00 0.00 95 1020.1
20260905103005 64 5 0.9 2.6 0.00 0.00 0.00 96 1020.0
20260905102003 64 342 1.7 2.6 0.00 0.00 0.00 96 1020.3
20260905101004 64 4 0.9 4.3 0.00 0.00 0.00 96 1020.3
20260905100005 64 279 1.7 2.6 0.00 0.00 0.00 95 1020.2
20260905095004 65 341 1.7 2.6 0.00 0.00 0.00 95 1020.4
20260905094004 65 34 0.9 2.6 0.00 0.00 0.00 95 1020.0
20260905091004 65 109 0.0 1.7 0.00 0.00 0.00 94 1020.4
20260905090004 65 112 0.0 2.6 0.00 0.00 0.00 94 1020.1
20260905085004 65 91 0.9 2.6 0.00 0.00 0.00 94 1020.0
20260905084004 65 98 0.9 2.6 0.00 0.00 0.00 94 1020.1
20260905083004 64 72 1.7 2.6 0.00 0.00 0.00 94 1020.0
20260905082004 65 113 0.9 2.6 0.00 0.00 0.00 94 1020.1
20260905081004 65 83 1.7 1.7 0.00 0.00 0.00 95 1020.0
20260905080004 65 105 0.9 2.6 0.00 0.00 0.00 95 1020.1
20260905075004 65 148 0.0 2.6 0.00 0.00 0.00 95 1020.2
20260905074005 65 45 0.0 2.6 0.00 0.00 0.00 95 1020.2
20260905073004 65 298 0.9 2.6 0.00 0.00 0.00 94 1020.1
20260905072004 66 290 0.9 2.6 0.00 0.00 0.00 92 1020.1
20260905064004 67 79 0.9 2.6 0.00 0.00 0.00 91 1020.7
20260905063006 67 142 1.7 2.6 0.00 0.00 0.00 91 1020.5
20260905062003 67 92 0.9 2.6 0.00 0.00 0.00 91 1020.7
20260905061005 67 88 0.0 2.6 0.00 0.00 0.00 91 1020.8
20260905055005 68 113 1.7 5.2 0.00 0.00 0.00 91 1020.6
20260905052004 68 157 2.6 6.1 0.00 0.00 0.00 91 1020.6
20260905051005 67 124 0.9 2.6 0.00 0.00 0.00 92 1020.7
20260905045004 68 254 0.9 5.2 0.00 0.00 0.00 92 1020.7
20260905043004 69 260 1.7 6.1 0.00 0.00 0.00 88 1020.7
20260905041005 70 144 2.6 5.2 0.00 0.00 0.00 87 1020.5
20260905040004 70 345 0.9 5.2 0.00 0.00 0.00 87 1020.4
20260905033004 70 124 0.9 8.7 0.00 0.00 0.00 84 1020.5
20260905032004 70 163 0.9 12.2 0.00 0.00 0.00 85 1020.5
20260905030004 70 115 3.5 11.3 0.00 0.00 0.00 82 1020.3
20260905025006 70 181 2.6 12.2 0.00 0.00 0.00 84 1020.2
20260905024004 70 128 3.5 13.9 0.00 0.00 0.00 83 1020.2
20260905023004 71 151 6.1 13.9 0.00 0.00 0.00 83 1020.1
20260905022006 71 143 6.1 13.0 0.00 0.00 0.00 79 1019.8
20260905021004 71 152 7.0 13.0 0.00 0.00 0.00 77 1019.8
20260905014005 72 144 2.6 14.8 0.00 0.00 0.00 82 1019.4
20260905013004 73 133 6.1 12.2 0.00 0.00 0.00 80 1019.3
20260905012005 73 114 7.8 15.6 0.00 0.00 0.00 80 1019.6
20260905010004 73 151 3.5 11.3 0.00 0.00 0.00 84 1019.2
20260905005004 73 181 4.3 12.2 0.00 0.00 0.00 85 1019.1
20260905002005 76 137 2.6 13.9 0.00 0.00 0.00 80 1018.5
20260905000006 77 148 5.2 13.9 0.00 0.00 0.00 78 1018.2
20260904235006 77 182 5.2 14.8 0.00 0.00 0.00 76 1017.9
20260904234005 77 175 6.1 13.9 0.00 0.00 0.00 76 1017.9
20260904233004 78 154 2.6 15.6 0.00 0.00 0.00 75 1018.1
20260904232005 78 175 4.3 13.0 0.00 0.00 0.00 74 1018.2
20260904231004 78 183 4.3 13.9 0.00 0.00 0.00 74 1018.2
20260904230008 78 136 4.3 14.8 0.00 0.00 0.00 72 1018.5
20260904225004 79 149 7.8 14.8 0.00 0.00 0.00 72 1018.2
20260904224004 79 165 7.0 15.6 0.00 0.00 0.00 70 1018.1
20260904223004 79 173 5.2 13.9 0.00 0.00 0.00 70 1018.1
20260904222004 80 168 5.2 13.0 0.00 0.00 0.00 66 1018.3
20260904221005 80 202 2.6 13.0 0.00 0.00 0.00 66 1018.0
20260904220005 80 315 1.7 12.2 0.00 0.00 0.00 66 1018.1
20260904215004 80 177 4.3 12.2 0.00 0.00 0.00 62 1018.2
20260904214004 79 178 4.3 13.9 0.00 0.00 0.00 66 1018.2
20260904213004 79 144 5.2 12.2 0.00 0.00 0.00 65 1018.3
20260904212005 80 221 4.3 7.8 0.00 0.00 0.00 62 1018.3
20260904211005 80 184 4.3 7.8 0.00 0.00 0.00 62 1018.5
20260904210004 81 220 1.7 8.7 0.00 0.00 0.00 60 1018.6
20260904205005 80 179 4.3 13.0 0.00 0.00 0.00 59 1018.8
20260904204005 80 147 4.3 10.4 0.00 0.00 0.00 60 1019.0
20260904203004 82 167 2.6 10.4 0.00 0.00 0.00 56 1019.1
20260904202004 81 177 3.5 12.2 0.00 0.00 0.00 54 1019.2
20260904200004 80 87 2.6 11.3 0.00 0.00 0.00 53 1019.4
20260904195004 82 166 6.1 10.4 0.00 0.00 0.00 53 1019.6
20260904193007 80 155 5.2 7.0 0.00 0.00 0.00 59 1019.8
20260904192005 81 193 2.6 7.0 0.00 0.00 0.00 58 1019.8
20260904190005 78 125 4.3 6.1 0.00 0.00 0.00 64 1020.1
20260904185003 78 15 0.9 7.0 0.00 0.00 0.00 63 1020.3
20260904184003 79 246 4.3 7.0 0.00 0.00 0.00 64 1020.5
20260904183015 77 166 0.9 6.1 0.00 0.00 0.00 65 1020.6
20260904182012 77 306 0.9 4.3 0.00 0.00 0.00 64 1020.9
20260904181006 75 355 1.7 7.8 0.00 0.00 0.00 68 1021.0
20260904180003 76 213 0.9 4.3 0.00 0.00 0.00 68 1021.1
20260904175003 75 211 1.7 5.2 0.00 0.00 0.00 66 1021.0
20260904174002 74 142 0.9 6.1 0.00 0.00 0.00 69 1021.3
20260904173004 74 342 1.7 4.3 0.00 0.00 0.00 71 1021.5
20260904172002 73 305 0.9 5.2 0.00 0.00 0.00 71 1021.5
20260904171003 72 227 1.7 6.1 0.00 0.00 0.00 71 1021.5
20260904170003 72 347 4.3 7.8 0.00 0.00 0.00 74 1021.5
20260904165008 70 314 1.7 7.0 0.00 0.00 0.00 74 1021.5
20260904164016 71 299 2.6 7.0 0.00 0.00 0.00 75 1021.5
20260904163008 70 248 2.6 7.0 0.00 0.00 0.00 77 1021.5
20260904162010 70 94 2.6 7.0 0.00 0.00 0.00 79 1021.7
20260904161004 70 52 1.7 5.2 0.00 0.00 0.00 77 1021.7
20260904160002 68 61 2.6 5.2 0.00 0.00 0.00 79 1021.7
20260904154003 68 84 2.6 7.0 0.00 0.00 0.00 81 1021.6
20260904153002 68 53 3.5 12.2 0.00 0.00 0.00 82 1021.6
20260904152003 67 62 3.5 12.2 0.00 0.00 0.00 84 1021.6
20260904151003 66 77 2.6 7.0 0.00 0.00 0.00 86 1021.5
20260904150003 67 36 0.9 7.0 0.00 0.00 0.00 87 1021.6
20260904145003 66 78 1.7 5.2 0.00 0.00 0.00 88 1021.5
20260904144008 66 121 2.6 6.1 0.00 0.00 0.00 89 1021.5
20260904143004 65 70 1.7 7.8 0.00 0.00 0.00 90 1021.4
20260904142003 65 63 2.6 6.1 0.00 0.00 0.00 91 1021.4
20260904141003 65 40 4.3 6.1 0.00 0.00 0.00 91 1021.3
20260904140003 65 52 0.9 5.2 0.00 0.00 0.00 91 1021.2
20260904133004 65 6 1.7 6.1 0.00 0.00 0.00 91 1021.1
20260904132002 65 24 4.3 6.1 0.00 0.00 0.00 91 1021.1
20260904131006 65 2 0.9 4.3 0.00 0.00 0.00 90 1020.9
20260904130004 64 348 1.7 2.6 0.00 0.00 0.00 90 1020.8
20260904125004 65 5 0.9 2.6 0.00 0.00 0.00 90 1020.6
20260904124005 64 8 0.9 2.6 0.00 0.00 0.00 91 1020.8
20260904123005 64 344 1.7 4.3 0.00 0.00 0.00 91 1020.9
20260904122004 64 111 1.7 4.3 0.00 0.00 0.00 91 1020.6
20260904120004 64 17 2.6 4.3 0.00 0.00 0.00 92 1020.6